• In Hungary
  • List of Countries
  • For 7 days
  • Water Temperature
  • Satellite Maps
  • Weather Map
  • News
  • Weather Widgets
  • user-avatar
    Login

    Hourly Weather Kalna

    Today, 22 September, Saturday

    Time Temperature Precipitation Wind Pressure Humidity
    00:00 +17°C° 0.1 mm 3 mps 722 mmHg 68%
    01:00 +17°C° 0 mm 3 mps 722 mmHg 68%
    02:00 +16°C° 1.4 mm 3 mps 723 mmHg 74%
    03:00 +14°C° 1.4 mm 4 mps 724 mmHg 81%
    04:00 +13°C° 1.4 mm 4 mps 724 mmHg 87%
    05:00 +13°C° 1.3 mm 3 mps 725 mmHg 87%
    06:00 +13°C° 1.3 mm 2 mps 726 mmHg 87%
    07:00 +12°C° 0 mm 1 mps 726 mmHg 86%
    08:00 +12°C° 0.4 mm 2 mps 726 mmHg 82%
    09:00 +13°C° 0.4 mm 2 mps 727 mmHg 79%
    10:00 +13°C° 0.4 mm 2 mps 727 mmHg 76%
    11:00 +14°C° 0 mm 2 mps 727 mmHg 68%
    12:00 +16°C° 0 mm 3 mps 727 mmHg 60%
    13:00 +16°C° 0 mm 3 mps 727 mmHg 53%
    14:00 +16°C° 0 mm 3 mps 727 mmHg 52%
    15:00 +16°C° 0 mm 3 mps 727 mmHg 52%
    16:00 +16°C° 0 mm 3 mps 727 mmHg 51%
    17:00 +14°C° 0 mm 3 mps 727 mmHg 55%
    18:00 +14°C° 0 mm 2 mps 727 mmHg 60%
    19:00 +12°C° 0 mm 2 mps 727 mmHg 65%
    20:00 +12°C° 0 mm 2 mps 727 mmHg 65%
    21:00 +12°C° 0 mm 2 mps 727 mmHg 65%
    22:00 +12°C° 0 mm 2 mps 727 mmHg 65%
    23:00 +12°C° 0.1 mm 2 mps 727 mmHg 68%

    Tomorrow, 23 September, Sunday

    Time Temperature Precipitation Wind Pressure Humidity
    00:00 +12°C° 0.1 mm 2 mps 727 mmHg 71%
    01:00 +11°C° 0.1 mm 3 mps 727 mmHg 74%
    02:00 +10°C° 0 mm 3 mps 726 mmHg 76%
    03:00 +10°C° 0 mm 2 mps 726 mmHg 77%
    04:00 +10°C° 0 mm 2 mps 726 mmHg 78%
    05:00 +10°C° 0 mm 3 mps 726 mmHg 77%
    06:00 +10°C° 0 mm 3 mps 726 mmHg 76%
    07:00 +10°C° 0 mm 3 mps 726 mmHg 74%
    08:00 +12°C° 0 mm 3 mps 726 mmHg 70%
    09:00 +13°C° 0 mm 4 mps 726 mmHg 65%
    10:00 +14°C° 0 mm 4 mps 726 mmHg 61%
    11:00 +14°C° 0.1 mm 4 mps 725 mmHg 64%
    12:00 +14°C° 0.1 mm 4 mps 725 mmHg 67%
    13:00 +14°C° 0.1 mm 4 mps 724 mmHg 70%
    14:00 +13°C° 0.2 mm 4 mps 724 mmHg 74%
    15:00 +12°C° 0.2 mm 4 mps 723 mmHg 78%
    16:00 +12°C° 0.2 mm 4 mps 722 mmHg 81%
    17:00 +12°C° 0 mm 4 mps 721 mmHg 80%
    18:00 +12°C° 0 mm 5 mps 720 mmHg 79%
    19:00 +12°C° 0 mm 5 mps 719 mmHg 77%
    20:00 +13°C° 0.4 mm 6 mps 718 mmHg 78%
    21:00 +14°C° 0.4 mm 6 mps 717 mmHg 78%
    22:00 +15°C° 0.4 mm 7 mps 716 mmHg 79%
    23:00 +15°C° 2.9 mm 7 mps 716 mmHg 83%

    Day after tomorrow, 24 September, Monday

    Time Temperature Precipitation Wind Pressure Humidity
    00:00 +15°C° 2.9 mm 6 mps 715 mmHg 87%
    01:00 +15°C° 2.9 mm 6 mps 715 mmHg 91%
    02:00 +14°C° 2.8 mm 7 mps 716 mmHg 90%
    03:00 +11°C° 2.8 mm 8 mps 717 mmHg 90%
    04:00 +9°C° 2.8 mm 8 mps 719 mmHg 89%
    05:00 +7°C° 0.4 mm 8 mps 720 mmHg 88%
    06:00 +8°C° 0.4 mm 7 mps 721 mmHg 87%
    07:00 +6°C° 0.4 mm 7 mps 723 mmHg 86%
    08:00 +6°C° 0.1 mm 7 mps 724 mmHg 83%
    09:00 +8°C° 0.1 mm 7 mps 725 mmHg 80%
    10:00 +8°C° 0.1 mm 7 mps 726 mmHg 77%
    11:00 +8°C° 0.3 mm 7 mps 726 mmHg 72%
    12:00 +9°C° 0.3 mm 7 mps 727 mmHg 67%
    13:00 +9°C° 0.3 mm 8 mps 727 mmHg 62%
    14:00 +9°C° 0.3 mm 7 mps 728 mmHg 63%
    15:00 +9°C° 0.3 mm 7 mps 728 mmHg 64%
    16:00 +8°C° 0.3 mm 7 mps 728 mmHg 65%
    17:00 +7°C° 0.1 mm 6 mps 728 mmHg 68%
    18:00 +6°C° 0.1 mm 5 mps 729 mmHg 71%
    19:00 +5°C° 0.1 mm 4 mps 729 mmHg 74%
    20:00 +5°C° 0 mm 4 mps 730 mmHg 75%
    21:00 +4°C° 0 mm 4 mps 730 mmHg 75%
    22:00 +4°C° 0 mm 4 mps 731 mmHg 76%
    23:00 +4°C° 0.1 mm 4 mps 731 mmHg 77%

    25 September, Tuesday

    Time Temperature Precipitation Wind Pressure Humidity
    00:00 +4°C° 0.1 mm 4 mps 732 mmHg 78%
    01:00 +4°C° 0.1 mm 3 mps 732 mmHg 79%
    02:00 +3°C° 0.1 mm 3 mps 732 mmHg 80%
    03:00 +3°C° 0.1 mm 3 mps 733 mmHg 82%
    04:00 +3°C° 0.1 mm 3 mps 733 mmHg 83%
    05:00 +3°C° 0.1 mm 3 mps 734 mmHg 83%
    06:00 +3°C° 0.1 mm 3 mps 734 mmHg 83%
    07:00 +3°C° 0.1 mm 3 mps 735 mmHg 82%
    08:00 +4°C° 0 mm 3 mps 735 mmHg 78%
    09:00 +7°C° 0 mm 3 mps 736 mmHg 74%
    10:00 +8°C° 0 mm 3 mps 736 mmHg 69%
    11:00 +8°C° 0.1 mm 3 mps 736 mmHg 66%
    12:00 +8°C° 0.1 mm 4 mps 736 mmHg 64%
    13:00 +8°C° 0.1 mm 4 mps 737 mmHg 61%
    14:00 +8°C° 0.2 mm 4 mps 737 mmHg 62%
    15:00 +9°C° 0.2 mm 3 mps 737 mmHg 63%
    16:00 +9°C° 0.2 mm 3 mps 736 mmHg 64%
    17:00 +8°C° 0 mm 3 mps 737 mmHg 68%
    18:00 +6°C° 0 mm 2 mps 737 mmHg 73%
    19:00 +6°C° 0 mm 1 mps 738 mmHg 77%
    20:00 +5°C° 0 mm 1 mps 738 mmHg 78%
    21:00 +5°C° 0 mm 1 mps 738 mmHg 79%
    22:00 +4°C° 0 mm 1 mps 739 mmHg 80%
    23:00 +4°C° 0 mm 1 mps 739 mmHg 80%

    26 September, Wednesday

    Time Temperature Precipitation Wind Pressure Humidity
    00:00 +4°C° 0 mm 1 mps 739 mmHg 81%
    01:00 +4°C° 0 mm 1 mps 739 mmHg 82%
    02:00 +3°C° 0 mm 1 mps 739 mmHg 82%
    03:00 +3°C° 0 mm 1 mps 739 mmHg 82%
    04:00 +3°C° 0 mm 1 mps 739 mmHg 82%
    05:00 +4°C° 0 mm 1 mps 739 mmHg 79%
    06:00 +4°C° 0 mm 1 mps 739 mmHg 75%
    07:00 +5°C° 0 mm 1 mps 739 mmHg 72%
    08:00 +6°C° 0 mm 2 mps 739 mmHg 64%
    09:00 +8°C° 0 mm 2 mps 739 mmHg 56%
    10:00 +10°C° 0 mm 3 mps 739 mmHg 47%
    11:00 +11°C° 0 mm 3 mps 738 mmHg 46%
    12:00 +12°C° 0 mm 4 mps 738 mmHg 45%
    13:00 +13°C° 0 mm 4 mps 737 mmHg 45%
    14:00 +13°C° 0 mm 4 mps 737 mmHg 47%
    15:00 +13°C° 0 mm 4 mps 736 mmHg 49%
    16:00 +12°C° 0 mm 4 mps 736 mmHg 51%
    17:00 +11°C° 0 mm 3 mps 735 mmHg 57%
    18:00 +9°C° 0 mm 3 mps 735 mmHg 62%
    19:00 +7°C° 0 mm 3 mps 735 mmHg 67%
    20:00 +7°C° 0 mm 3 mps 735 mmHg 66%
    21:00 +7°C° 0 mm 3 mps 735 mmHg 64%
    22:00 +7°C° 0 mm 3 mps 735 mmHg 63%
    23:00 +7°C° 0 mm 3 mps 734 mmHg 63%

    27 September, Thursday

    Time Temperature Precipitation Wind Pressure Humidity
    00:00 +7°C° 0 mm 3 mps 734 mmHg 63%
    01:00 +5°C° 0 mm 3 mps 734 mmHg 63%
    02:00 +5°C° 0 mm 3 mps 734 mmHg 63%
    03:00 +5°C° 0 mm 3 mps 733 mmHg 64%
    04:00 +5°C° 0 mm 3 mps 733 mmHg 64%
    05:00 +5°C° 0 mm 3 mps 733 mmHg 63%
    06:00 +7°C° 0 mm 3 mps 733 mmHg 62%
    07:00 +7°C° 0 mm 3 mps 733 mmHg 60%
    08:00 +10°C° 0 mm 3 mps 733 mmHg 55%
    09:00 +12°C° 0 mm 3 mps 732 mmHg 50%
    10:00 +16°C° 0 mm 3 mps 732 mmHg 45%
    11:00 +17°C° 0 mm 3 mps 732 mmHg 43%
    12:00 +18°C° 0 mm 3 mps 732 mmHg 42%
    13:00 +19°C° 0 mm 3 mps 731 mmHg 40%
    14:00 +18°C° 0 mm 3 mps 731 mmHg 44%
    15:00 +18°C° 0 mm 3 mps 730 mmHg 48%
    16:00 +18°C° 0 mm 2 mps 730 mmHg 52%
    17:00 +16°C° 0 mm 2 mps 730 mmHg 57%
    18:00 +14°C° 0 mm 2 mps 730 mmHg 62%
    19:00 +12°C° 0 mm 2 mps 729 mmHg 68%
    20:00 +10°C° 0 mm 2 mps 729 mmHg 68%
    21:00 +10°C° 0 mm 2 mps 729 mmHg 68%
    22:00 +10°C° 0 mm 2 mps 729 mmHg 68%
    23:00 +9°C° 0 mm 2 mps 728 mmHg 68%
    Show more